Wind_Speed
17 17 19 20 21 23 25 27 28 28 28 28 29 30 31 31 30 30 30 31 32 32 32 32 32 32 32 32 30 29 29 29 28 28 28 28 28 28 28 28 28 26 25 25 26 26 24 20 16 13 12 11 12 12 11 10 10 11 12 12 11 12 13 12 9 6 6 6 6 5 4 5 6 7 7 6 6 7 8 8 7 7 7 8 8
18 18 19 20 22 24 27 29 30 30 31 32 34 34 35 34 32 30 31 33 34 34 34 34 34 34 33 33 32 31 30 29 29 29 29 29 30 30 30 29 28 27 27 28 28 28 28 25 21 16 12 10 11 13 13 12 13 15 14 13 11 11 12 11 9 7 6 6 6 5 6 7 8 7 7 6 5 6 6 7 7 7 7 7 8
21 21 21 23 24 26 28 30 32 32 33 35 36 36 36 35 33 33 34 35 36 36 36 35 35 34 33 33 33 32 32 32 32 32 33 34 35 35 35 34 34 34 34 35 35 34 33 32 29 24 20 17 16 17 17 16 16 16 14 14 13 12 11 11 10 9 8 7 7 7 8 9 9 9 8 8 9 9 9 8 8 8 7 8 9
24 24 23 25 26 28 29 30 32 32 34 35 36 36 35 35 35 36 37 37 37 37 36 36 36 34 34 35 35 35 36 38 38 39 40 41 43 44 44 44 44 45 45 45 44 43 42 40 38 35 32 30 27 26 24 22 20 19 18 17 16 14 12 11 11 10 9 9 9 10 11 11 11 11 11 12 13 13 13 13 13 12 11 10 10
26 26 26 26 27 28 29 30 31 32 33 34 35 35 34 35 36 37 37 37 37 37 37 36 36 35 36 37 39 41 42 44 45 45 46 47 48 50 51 51 51 51 51 51 51 50 49 48 46 44 42 40 38 36 34 32 30 28 26 24 21 19 15 12 11 10 10 10 10 11 13 14 15 14 14 14 14 14 15 16 16 16 16 15 15
25 25 26 26 25 26 28 29 29 29 30 32 32 32 33 34 35 36 36 37 36 37 37 36 36 37 38 40 42 44 46 47 47 48 48 49 50 51 52 53 53 53 53 53 53 53 52 51 50 49 47 46 45 44 43 42 40 38 35 32 29 25 21 18 15 13 12 11 11 11 12 14 15 16 16 16 16 16 17 18 18 18 18 19 20
25 24 23 23 22 23 25 25 26 27 27 29 30 31 32 33 34 34 35 35 35 36 36 37 37 37 38 40 42 44 45 45 45 46 47 47 48 49 49 50 50 50 50 51 51 51 51 51 51 50 50 48 47 47 47 46 46 45 43 42 39 36 32 28 24 21 18 16 14 14 13 13 13 13 15 17 17 18 19 19 20 20 20 21 21
22 23 23 23 22 23 24 25 27 28 28 28 30 30 31 32 32 32 32 33 33 33 34 35 36 37 37 37 38 39 39 40 40 40 41 42 43 44 45 45 46 46 46 46 47 47 47 48 49 49 50 49 48 47 47 47 47 47 47 47 46 45 43 40 37 34 30 26 22 19 17 16 15 14 15 15 16 17 18 18 19 20 22 22 22
21 23 24 23 24 24 25 26 27 27 28 28 30 31 31 31 30 30 30 30 30 30 30 30 31 31 31 31 31 32 32 33 33 34 35 36 37 38 39 40 40 41 41 42 43 43 43 44 45 46 48 49 49 47 46 45 46 46 47 47 47 47 47 46 45 43 41 38 35 31 27 24 21 19 18 18 18 18 19 19 19 20 20 22 24
21 22 22 22 23 23 23 24 24 25 26 27 29 30 30 30 30 28 27 27 27 26 26 25 26 26 26 26 26 26 27 27 27 28 29 30 31 32 33 33 34 35 36 37 38 39 40 40 41 42 44 46 48 48 46 45 44 44 44 45 45 46 46 46 46 45 44 44 43 41 39 36 33 29 26 23 21 20 20 21 22 22 22 22 23
19 19 19 20 20 21 21 22 22 24 25 26 27 28 28 29 29 28 26 25 24 23 23 22 22 21 22 22 21 22 22 22 23 24 24 24 25 26 27 28 29 30 32 33 34 36 37 37 38 38 39 41 44 46 46 45 43 42 42 42 42 43 44 44 45 45 45 44 44 44 43 42 41 39 36 33 30 27 24 21 21 23 24 25 25
17 17 18 18 19 19 21 21 21 22 23 25 25 25 26 27 27 26 26 26 25 24 22 21 19 18 17 17 17 18 18 18 19 19 20 20 20 21 23 24 25 27 28 29 31 33 34 35 35 36 36 37 39 42 44 45 44 42 40 40 40 40 40 41 42 42 43 43 43 43 43 43 43 42 41 39 38 36 33 30 27 24 23 23 26
15 15 15 16 16 18 19 20 20 19 21 23 24 23 23 24 24 24 25 25 25 24 23 22 20 18 15 13 12 12 14 14 15 15 15 16 17 18 19 20 21 23 25 26 28 29 31 32 33 34 34 35 36 38 40 42 43 43 40 39 38 38 38 38 39 40 40 41 41 42 42 42 43 43 43 42 41 40 39 38 37 34 31 29 26
14 14 14 15 15 16 17 17 18 17 18 20 21 21 21 22 22 22 23 23 23 23 23 22 22 21 19 15 12 9 8 8 8 9 10 11 13 14 15 17 18 20 22 24 25 26 28 30 31 32 32 33 34 35 36 38 40 42 41 39 37 37 37 36 36 37 38 39 39 39 39 40 41 42 43 44 43 43 42 42 42 41 39 38 36
13 13 13 13 13 14 15 16 16 16 16 17 18 18 18 19 19 20 20 20 20 21 22 22 23 23 23 21 17 13 10 8 7 6 5 6 7 9 11 13 15 17 20 22 23 24 26 27 29 30 31 32 34 35 35 36 37 39 41 40 38 36 36 36 36 35 36 37 37 38 38 38 39 40 41 42 44 44 44 43 44 44 44 44 43
11 11 11 12 12 12 13 13 14 14 14 14 15 16 16 16 17 17 18 18 19 19 20 21 23 23 24 24 22 18 15 13 11 8 6 4 3 5 7 10 13 16 19 20 21 23 25 26 27 29 29 31 32 34 35 36 36 37 39 40 40 38 35 35 36 35 35 35 36 36 37 37 37 38 40 41 43 44 45 45 46 47 49 49 49
10 10 10 11 11 10 11 11 12 12 12 12 13 13 14 14 14 14 16 17 18 18 19 20 21 23 24 25 24 22 19 17 15 12 9 5 5 5 7 10 13 16 18 20 21 22 23 25 27 28 28 30 31 33 35 36 36 37 38 39 41 39 36 34 34 35 35 35 35 36 36 36 36 37 39 41 43 44 46 48 49 51 52 54 56
9 9 9 9 9 8 8 9 9 10 11 11 11 11 12 12 12 13 14 15 16 17 18 19 20 21 23 25 25 24 22 20 18 16 13 9 6 7 9 11 14 17 20 22 22 23 23 24 26 27 28 29 30 31 33 34 36 37 37 38 40 41 38 34 33 34 34 35 35 36 36 36 36 36 38 40 42 44 46 48 50 51 53 54 57
9 9 9 8 8 7 6 7 8 8 9 9 10 10 11 11 12 12 13 14 15 16 17 17 18 20 22 24 25 25 24 22 21 18 16 13 10 9 10 12 15 18 20 22 21 21 22 23 25 26 27 29 30 31 32 33 35 35 36 37 39 41 40 36 34 34 34 35 35 36 37 37 36 37 37 39 41 44 46 47 49 51 53 55 57
9 8 8 7 6 6 5 6 6 7 7 8 9 9 10 11 12 12 13 13 14 15 16 16 17 18 20 22 24 25 26 24 22 19 17 15 14 12 12 13 15 17 19 20 20 21 22 24 26 27 28 29 30 31 31 32 33 34 35 36 38 40 41 39 36 35 35 35 35 36 37 38 38 38 38 39 40 43 45 47 49 51 54 56 58
8 7 7 6 5 4 4 4 4 5 6 8 9 9 10 11 12 12 13 13 14 15 16 16 17 17 18 19 21 23 25 25 23 20 18 17 15 14 13 14 15 17 18 19 20 21 22 24 26 28 29 30 31 32 32 32 33 33 33 35 36 39 41 41 37 35 35 35 35 35 36 38 39 39 39 40 41 42 45 48 50 52 55 58 60
7 6 5 4 4 3 2 2 3 4 5 7 8 10 10 10 11 12 12 13 14 15 16 17 17 18 18 18 19 20 22 24 24 22 20 18 17 16 15 15 16 16 18 19 21 22 23 25 27 29 30 31 32 33 33 33 33 33 33 34 35 37 40 41 38 36 35 35 35 35 36 38 40 40 41 42 43 44 46 48 51 54 57 60 62
6 6 5 4 3 2 1 0 1 2 4 6 9 11 10 10 11 11 12 13 14 14 16 17 17 18 18 18 18 18 19 21 22 22 21 19 18 17 16 16 16 17 18 19 21 22 23 25 26 28 30 31 32 33 33 33 33 33 33 33 35 36 38 40 39 36 35 35 35 36 37 38 40 42 43 44 45 46 47 49 51 54 58 61 64
6 5 5 4 3 3 2 2 2 3 5 9 11 12 11 10 11 11 11 13 13 14 15 16 18 18 19 19 18 17 17 18 20 21 21 20 19 18 18 17 17 18 19 20 21 22 23 24 26 27 28 29 30 31 33 33 32 32 32 33 34 35 37 39 40 37 34 34 35 36 37 39 41 42 44 46 47 49 50 52 54 56 59 63 66
5 5 4 4 3 3 3 3 4 6 8 9 11 12 11 11 11 11 12 12 13 14 15 16 17 19 19 20 19 19 18 18 19 19 20 20 20 19 19 19 19 19 20 22 22 23 23 24 25 26 27 28 29 30 32 33 32 31 31 32 33 35 36 38 39 37 34 34 35 36 38 40 42 44 46 48 50 52 53 55 57 58 61 64 67
5 4 4 4 4 3 4 4 6 8 9 11 12 13 13 12 12 12 12 13 13 14 15 16 17 18 20 21 21 21 20 20 20 20 20 20 21 20 20 20 20 21 22 23 23 24 24 25 25 26 27 28 29 30 32 33 33 31 30 31 33 34 36 37 38 37 35 34 35 37 39 41 43 45 48 51 53 55 56 58 59 61 63 65 68
6 6 6 5 6 6 6 7 8 9 10 12 13 14 14 14 14 13 13 13 14 14 15 16 17 18 19 21 22 22 22 22 22 21 21 22 22 22 21 21 21 21 22 23 24 25 25 26 27 28 28 29 30 32 33 35 35 32 30 31 32 34 35 36 37 37 35 35 36 38 40 42 44 47 50 53 55 57 58 60 61 62 65 67 69
8 8 8 8 9 9 9 9 10 11 11 13 14 15 15 16 16 15 15 15 15 15 15 16 17 18 19 20 21 22 23 23 23 23 22 22 23 23 24 23 23 23 23 23 25 26 27 28 29 30 31 31 32 33 34 35 37 35 31 30 31 33 35 36 37 37 36 36 37 39 40 43 45 48 51 54 56 58 60 62 63 65 67 69 71
11 10 10 11 11 11 11 11 11 12 13 13 13 14 15 16 17 17 17 17 17 17 17 18 18 19 20 20 22 22 23 24 24 24 24 24 24 24 25 26 26 26 25 25 26 27 28 29 30 32 32 33 34 35 36 36 38 37 32 29 30 31 34 35 36 37 36 37 38 39 41 44 46 48 51 54 56 59 61 63 65 67 69 70 73
13 12 12 12 12 13 13 12 12 12 13 13 13 14 15 16 18 19 19 20 19 19 19 20 20 21 22 22 23 23 24 25 25 26 25 25 25 25 26 27 27 28 28 28 28 29 30 31 32 33 35 36 37 38 38 37 38 38 33 29 28 29 31 34 35 36 37 38 39 40 42 44 46 49 52 54 57 59 62 64 66 69 72 73 75
14 13 13 13 13 13 13 13 12 12 13 13 14 14 15 17 18 20 21 22 22 22 22 22 23 24 25 25 25 26 26 26 27 28 28 27 27 27 27 27 28 30 31 31 31 31 32 32 33 34 35 37 39 39 40 39 39 39 34 29 27 27 29 31 33 35 36 38 39 40 43 45 47 49 52 55 57 60 62 65 68 71 74 75 77
16 15 14 14 14 14 14 15 14 13 14 15 15 16 17 18 19 21 22 23 25 25 25 25 26 26 27 28 28 29 29 29 29 30 30 30 30 29 28 28 29 30 32 33 34 34 35 34 34 35 35 37 39 40 41 40 40 40 35 29 25 25 26 29 31 33 36 38 39 41 43 46 47 49 52 55 58 60 63 66 69 73 76 78 80
18 16 15 15 15 15 16 17 17 16 16 17 18 19 20 21 22 23 24 25 27 28 28 29 29 28 28 29 30 31 32 32 32 32 32 33 33 33 32 31 31 32 33 35 36 37 38 38 38 38 38 38 39 40 42 42 41 40 36 29 24 24 25 28 31 32 35 38 40 42 44 47 48 50 53 56 59 62 63 66 70 74 77 79 82
20 18 17 16 16 17 17 18 19 19 19 20 21 22 23 24 24 25 26 27 28 30 30 31 32 31 31 31 32 33 34 35 35 35 35 36 36 36 35 35 35 35 36 37 38 39 40 41 42 42 41 41 41 41 42 42 41 40 35 28 25 24 25 28 32 34 35 38 40 43 45 48 49 50 53 56 59 62 64 67 71 75 78 81 84
22 21 19 19 18 18 18 19 20 21 21 22 23 24 25 26 27 28 28 29 30 31 32 32 34 35 35 34 34 35 36 37 38 38 38 38 38 38 38 38 38 38 39 39 40 41 42 43 44 44 44 44 43 43 43 43 42 40 35 28 26 27 27 29 33 35 37 39 41 43 46 48 49 50 53 56 60 63 65 67 72 76 78 82 85
25 24 22 21 20 20 20 21 22 23 24 25 27 28 29 29 30 30 31 32 32 33 33 34 35 37 38 38 37 37 38 39 40 41 42 41 41 41 41 42 42 42 42 43 43 44 44 45 46 46 46 46 45 44 43 43 42 40 35 29 28 29 30 31 33 36 39 41 43 45 47 49 50 50 52 55 59 63 65 68 72 76 79 83 86
27 26 25 24 23 23 23 24 25 26 28 30 31 32 32 33 33 33 33 33 34 35 35 35 36 38 40 41 41 41 41 42 43 44 44 44 44 44 45 46 46 46 47 47 47 47 47 47 48 48 48 48 48 46 44 42 40 38 34 30 29 30 32 33 34 37 41 43 44 46 49 50 51 51 52 55 60 63 66 69 73 76 79 84 87
29 28 27 27 26 26 27 28 29 30 32 33 34 34 36 36 36 35 35 35 36 37 37 38 38 40 41 43 44 45 45 46 46 46 46 46 47 48 49 50 50 51 51 51 51 51 50 49 49 49 49 48 48 47 44 41 38 36 32 29 29 31 33 35 35 38 42 44 44 46 49 51 52 52 53 56 60 64 68 71 73 76 80 85 88
32 30 29 29 29 30 30 32 33 34 35 36 37 37 38 39 39 38 37 38 38 39 40 40 41 42 44 45 47 48 49 49 49 49 49 50 50 52 53 54 55 55 55 55 55 54 53 52 50 50 49 48 46 45 43 40 36 34 31 29 30 32 34 36 36 38 42 43 43 46 49 51 52 53 54 56 61 65 69 72 74 76 81 85 89
33 32 32 32 33 34 34 35 37 38 38 39 40 40 40 41 41 41 40 40 41 42 43 43 44 45 46 47 49 50 51 52 52 53 53 54 54 55 56 57 58 58 58 58 57 56 54 52 51 50 47 45 44 42 39 36 33 32 30 30 30 32 35 36 37 40 44 44 43 45 48 50 52 53 54 56 61 65 69 72 74 77 82 86 89
34 34 34 35 36 37 37 38 39 40 41 42 42 42 42 42 42 43 43 43 44 45 46 47 48 48 49 50 51 53 54 55 56 57 57 58 58 58 58 59 59 59 59 58 57 55 53 50 49 48 45 41 39 38 35 32 31 30 30 30 31 33 35 36 38 42 46 46 45 46 48 50 51 52 53 55 60 64 68 72 74 77 81 85 88
36 36 36 37 38 38 39 40 41 42 42 43 44 44 44 43 43 44 45 46 47 48 49 50 50 51 53 54 55 56 58 59 60 60 60 60 60 60 59 59 59 59 58 56 54 53 50 46 44 44 42 38 35 34 31 28 28 30 31 31 32 34 35 35 38 43 47 47 47 48 50 51 53 53 54 55 59 63 67 70 73 77 80 84 87
37 37 37 38 39 39 40 41 42 43 44 45 45 45 45 45 45 46 48 49 50 50 51 53 54 55 56 58 59 59 60 61 61 61 60 59 59 58 57 57 57 56 54 52 51 49 46 43 40 39 37 35 32 29 27 27 28 30 31 32 32 33 34 35 38 43 49 50 49 49 51 52 53 55 55 56 59 63 66 70 73 77 80 83 86
37 37 38 39 39 40 42 43 44 45 46 46 46 46 46 46 47 48 50 52 53 54 55 56 58 59 59 60 60 60 60 60 60 59 58 57 55 54 54 54 54 54 52 49 47 45 42 40 37 35 32 29 27 26 26 27 30 31 31 31 32 32 33 34 37 43 49 52 51 50 51 52 54 55 56 57 60 64 67 71 74 77 80 83 86
39 39 40 41 42 43 45 46 46 47 48 48 48 48 48 49 49 51 53 55 57 58 59 59 60 60 60 59 58 57 57 56 56 56 55 54 52 51 51 52 52 52 50 47 44 41 38 36 33 29 25 24 24 25 27 28 29 31 32 31 31 31 32 34 37 42 49 53 53 51 51 52 53 55 56 57 60 64 69 72 74 77 80 83 87
41 42 42 43 44 45 46 47 48 49 49 50 50 51 51 52 52 54 56 58 59 60 60 59 59 58 57 55 54 54 53 53 53 53 53 52 50 49 49 50 50 50 49 46 42 38 35 31 26 23 23 24 25 26 28 28 28 28 31 32 32 31 32 36 39 43 47 52 54 52 51 52 54 55 56 57 60 64 69 73 74 77 80 83 86
44 44 44 45 46 46 47 48 50 51 51 52 54 54 55 55 56 56 57 57 58 57 57 56 55 54 53 52 51 51 51 50 51 51 51 51 51 49 48 48 47 48 48 46 41 36 31 25 20 21 23 26 27 28 28 29 29 29 29 32 33 33 34 37 41 44 47 51 54 53 50 51 53 55 55 57 60 64 68 72 74 77 80 83 85
45 45 45 46 47 47 48 50 52 53 55 56 57 58 58 57 57 56 55 54 52 52 51 51 51 50 50 50 50 50 49 49 49 50 50 50 50 50 49 47 46 45 46 45 41 35 29 23 20 23 27 29 31 32 32 32 32 31 31 32 33 34 36 38 41 45 48 51 53 53 50 50 53 55 56 58 61 64 67 70 74 78 80 82 85
46 46 46 48 49 50 51 53 54 55 56 57 58 58 57 56 53 51 49 48 48 47 47 47 47 47 48 48 48 48 48 47 48 49 50 49 49 50 49 46 45 44 44 42 39 35 29 24 23 26 29 31 33 37 39 39 36 34 34 35 35 35 37 39 41 45 47 48 51 52 50 51 53 56 58 59 61 63 65 68 73 77 80 82 84
47 48 49 51 52 53 53 54 54 54 54 54 53 52 51 50 48 47 46 45 45 46 45 45 45 45 46 47 47 47 47 47 47 49 49 48 48 48 47 46 44 44 42 38 36 35 30 24 24 28 30 33 36 40 42 42 39 37 37 37 37 36 37 40 43 45 45 46 49 52 51 52 55 57 59 60 61 63 64 67 71 76 79 81 83
50 51 52 52 52 52 52 51 50 49 48 47 47 46 46 45 45 45 45 45 45 45 44 44 44 44 45 46 47 47 46 47 48 50 50 49 48 47 46 46 44 42 39 35 33 32 29 25 27 31 33 36 38 38 38 39 40 40 40 40 38 37 38 41 44 46 47 48 51 53 52 52 54 58 60 61 62 63 63 65 70 75 78 79 82
Wind_Direction
88 83 79 77 77 76 73 70 70 70 68 67 65 65 66 66 65 64 63 62 60 60 60 60 60 59 58 57 55 53 52 52 52 51 51 50 50 51 51 51 51 51 51 52 53 52 50 50 50 51 54 59 51 35 25 23 11 0 358 355 356 5 10 9 6 352 318 304 308 310 316 316 310 313 319 316 321 325 320 319 321 325 324 318 309
95 91 85 84 84 80 77 75 74 73 71 68 66 66 65 65 66 66 65 64 63 61 61 60 59 58 58 57 55 54 53 52 53 53 53 53 53 54 54 54 54 53 52 52 53 53 53 53 54 53 48 43 29 16 13 11 1 356 359 3 6 9 9 7 6 357 334 317 307 292 284 289 296 306 313 304 302 314 316 319 318 320 328 329 326
97 97 94 91 89 85 82 80 77 73 71 68 66 65 65 66 67 66 65 63 62 60 59 57 57 56 56 57 57 56 55 56 57 58 59 60 61 62 62 61 60 59 58 57 57 56 55 55 54 53 49 41 31 23 20 18 12 9 10 13 16 16 10 6 4 356 338 324 312 300 292 291 298 304 303 295 296 301 302 304 305 304 310 319 321
96 97 96 91 88 87 84 81 77 74 71 69 67 65 65 66 65 64 63 62 60 58 57 56 56 56 57 60 62 62 62 63 65 66 68 69 70 71 70 69 67 66 65 64 63 62 60 58 57 55 52 48 43 40 36 33 30 26 24 23 24 24 18 8 358 350 339 327 314 302 295 294 295 296 296 294 294 297 298 299 298 295 292 295 301
95 94 93 91 88 87 84 81 79 77 73 71 68 66 65 65 64 63 62 62 61 60 59 59 60 62 65 68 71 72 71 71 73 74 75 76 76 76 75 74 72 72 71 70 69 67 66 64 62 60 58 55 52 50 47 44 41 38 34 31 28 27 24 16 3 351 342 332 320 305 293 290 290 293 294 291 288 290 296 301 303 299 292 289 289
97 96 96 94 90 87 86 83 79 76 72 69 67 66 65 65 64 63 63 64 64 65 65 66 68 71 73 77 79 80 79 79 79 80 80 81 80 79 77 76 75 73 72 71 70 70 69 67 66 64 62 61 59 58 56 53 50 47 44 41 38 34 30 26 18 10 1 351 340 330 316 303 294 290 289 288 289 292 295 299 303 304 301 297 295
99 100 100 97 92 88 85 80 75 71 68 67 67 67 66 66 65 65 66 68 70 71 72 74 76 78 80 83 84 84 83 83 82 82 82 81 81 81 79 78 76 73 71 69 69 68 68 68 66 64 62 61 61 61 61 60 58 56 53 51 48 46 42 38 34 27 20 12 3 356 350 340 325 308 298 293 293 293 295 296 298 301 302 302 301
103 101 99 96 92 88 83 78 74 69 67 67 68 68 68 68 68 67 68 71 73 75 77 80 81 82 84 85 85 83 82 82 82 81 80 80 79 79 78 77 76 73 70 66 64 64 64 65 64 62 59 58 58 59 60 61 62 61 60 59 57 55 52 50 47 43 38 32 25 17 7 359 351 340 329 320 313 308 307 305 304 301 298 296 295
108 103 99 95 91 88 84 80 76 72 70 69 69 69 68 69 70 70 70 71 73 75 79 83 85 85 85 84 83 81 80 80 79 78 79 78 76 76 75 74 72 70 68 64 61 58 58 59 59 59 57 55 55 55 57 58 59 60 61 61 60 59 58 56 55 53 51 48 44 39 33 25 15 4 353 341 331 322 316 314 313 310 302 293 288
110 106 100 94 92 89 86 83 80 76 73 71 70 69 68 69 70 71 71 72 73 75 78 82 84 86 86 85 83 81 80 79 76 76 77 75 73 72 71 67 64 61 60 58 56 53 52 52 52 52 52 52 51 51 51 53 55 56 57 58 59 59 58 57 56 55 54 54 53 51 48 45 41 34 25 13 358 343 328 317 312 311 308 300 293
110 106 101 98 96 91 87 85 84 80 76 72 71 69 68 68 68 70 71 71 72 73 74 76 78 82 85 85 85 83 82 78 74 75 75 72 69 67 64 60 57 54 51 49 48 47 47 46 45 45 45 46 47 47 47 47 48 50 53 54 55 56 56 56 55 53 52 51 51 50 50 48 47 45 42 37 30 21 9 354 336 322 312 305 300
112 105 100 99 97 92 88 86 84 83 79 75 71 69 68 67 66 66 67 67 66 66 65 65 65 68 73 79 82 82 82 78 75 74 73 70 66 62 59 56 52 48 44 41 39 38 38 38 37 38 37 38 39 40 42 43 43 43 46 49 51 52 53 54 53 52 51 49 47 46 45 44 43 42 41 40 39 37 33 28 19 6 348 330 315
114 105 101 100 96 92 89 85 82 80 79 77 73 69 67 66 63 61 61 60 59 57 56 54 54 52 53 59 66 74 76 75 73 73 73 70 66 63 59 53 47 40 35 31 29 28 27 28 29 31 31 31 31 33 35 37 38 38 39 41 44 46 48 50 50 50 49 47 45 43 42 41 40 38 37 35 34 33 33 32 30 27 22 13 358
114 108 106 102 97 93 90 86 81 76 74 74 72 69 65 63 60 57 55 54 51 49 47 46 46 46 44 44 44 48 54 57 56 55 61 64 64 62 57 49 38 29 23 19 19 17 16 17 20 23 25 26 26 26 27 29 32 34 34 35 36 38 41 43 45 45 45 44 42 40 38 38 37 35 34 32 30 28 27 26 26 25 24 22 18
115 112 110 106 99 94 89 85 81 76 71 69 70 67 63 61 57 54 52 49 47 43 41 41 42 42 41 40 38 34 28 20 11 7 18 38 51 52 45 36 24 13 8 7 7 7 6 8 12 15 18 20 22 23 22 22 24 26 28 29 29 30 33 36 38 39 39 39 38 36 34 33 32 31 30 28 27 25 24 22 21 21 20 19 17
115 114 113 109 101 95 90 85 83 81 74 68 67 63 58 56 54 50 48 45 42 40 37 36 37 37 36 35 33 31 28 22 14 6 353 337 354 15 12 7 0 356 354 355 357 357 357 1 5 8 11 14 18 20 20 19 19 20 21 24 24 23 25 28 31 33 34 34 33 32 30 28 27 26 26 24 23 22 20 19 18 17 15 14 13
116 115 113 110 106 99 93 90 88 87 80 68 63 57 51 48 47 46 44 41 37 34 33 32 32 33 32 31 30 28 26 22 18 14 8 342 301 306 325 335 338 341 343 345 347 348 350 355 359 2 5 8 12 15 17 16 16 17 17 18 19 18 19 21 24 26 28 29 28 27 26 25 22 20 20 19 18 17 16 15 14 13 12 10 9
120 118 115 114 112 108 99 93 91 87 80 68 58 50 44 40 38 38 37 35 31 28 27 27 27 28 27 28 29 27 25 23 21 18 16 8 334 304 310 321 327 332 336 340 342 345 349 353 357 1 3 5 6 9 12 13 14 15 15 15 15 15 14 15 18 20 22 24 24 23 22 21 19 16 15 15 14 13 13 12 12 10 9 8 6
127 124 123 122 119 114 105 96 91 86 79 69 58 47 39 33 27 25 26 27 24 21 19 20 22 24 24 25 27 27 25 24 24 25 23 17 7 345 331 331 334 339 344 348 351 354 357 0 2 4 5 5 5 5 8 10 11 13 14 13 13 12 11 11 13 15 16 18 19 19 18 17 16 13 11 11 10 10 10 9 8 8 7 6 5
134 132 131 129 125 120 110 99 94 88 81 69 57 46 37 29 21 16 15 16 16 13 12 12 15 19 21 23 25 26 25 24 24 25 26 22 16 9 2 356 356 357 1 3 4 6 7 7 7 6 5 5 5 5 6 7 8 10 11 11 11 10 9 7 8 10 11 13 14 14 14 14 13 11 8 6 6 6 6 5 5 4 4 4 3
144 143 142 139 137 131 117 102 90 82 74 63 49 37 28 21 15 13 11 10 11 9 7 6 8 12 15 19 23 24 24 24 23 22 22 22 20 15 10 8 7 8 9 9 9 9 7 4 2 1 1 1 1 2 3 3 4 6 8 8 8 6 6 5 4 6 7 8 9 9 10 10 10 9 6 3 2 2 2 2 2 1 1 1 1
153 153 153 154 155 153 131 98 80 74 63 47 30 17 11 7 6 8 9 9 9 7 5 3 3 5 8 12 17 21 21 22 23 22 18 16 15 13 9 5 3 3 3 3 3 3 0 357 355 354 354 356 357 357 358 358 358 360 2 4 4 3 3 2 1 3 4 4 5 5 5 6 6 6 4 2 1 360 359 358 358 359 359 359 359
163 164 165 173 183 194 193 142 60 47 24 7 359 357 358 358 360 4 7 8 8 6 3 359 359 359 1 5 8 12 15 17 20 21 19 15 11 9 5 1 358 355 354 355 355 355 353 351 350 350 350 351 353 354 354 353 353 354 355 357 359 360 0 359 358 359 1 1 1 2 2 2 3 4 2 1 360 359 357 356 356 356 356 357 357
172 175 181 190 205 225 241 259 289 321 335 340 342 345 349 352 356 360 2 3 5 4 1 358 356 354 355 358 1 4 6 8 12 15 16 15 11 8 5 1 357 354 352 352 352 351 350 348 347 348 347 348 351 352 352 351 350 350 350 351 353 355 356 356 354 354 357 358 358 359 359 359 1 1 1 360 359 358 357 355 354 354 355 355 355
189 192 197 205 216 231 250 270 290 307 321 332 337 341 342 344 348 353 354 355 357 359 358 356 354 352 351 350 352 355 358 359 2 5 7 8 9 8 6 4 360 356 353 352 353 352 351 350 348 347 347 348 350 351 352 351 349 348 347 347 348 350 351 351 350 350 352 354 355 356 357 357 359 0 0 360 360 358 357 355 354 353 353 353 354
216 223 223 223 230 246 262 278 294 307 319 328 332 332 332 333 337 341 343 345 348 350 352 351 350 348 347 346 346 348 350 352 353 356 358 358 360 2 3 4 1 357 355 353 354 354 352 351 350 348 347 347 348 349 350 351 349 346 344 343 343 344 346 347 347 347 349 351 352 354 355 356 358 0 1 0 360 359 357 355 354 352 352 351 352
236 243 245 247 253 262 273 283 292 302 312 320 322 322 322 322 325 328 331 335 337 340 342 343 344 344 344 343 343 344 346 347 348 349 350 351 351 352 354 355 356 354 353 351 351 352 352 351 350 349 347 345 344 344 345 347 347 344 342 341 340 340 342 344 344 345 346 348 350 352 353 355 358 0 1 360 359 357 356 354 353 352 351 351 352
246 250 253 254 257 263 271 278 286 295 304 310 313 313 313 314 315 318 321 325 327 330 332 333 335 336 338 339 339 340 342 343 343 344 344 344 344 344 345 346 346 347 346 345 345 346 347 348 347 347 346 344 343 342 341 343 345 343 340 338 339 338 339 341 342 343 344 346 348 350 351 354 357 360 360 358 357 355 354 353 352 350 349 350 351
250 252 254 256 259 262 267 273 282 291 298 304 307 307 307 309 310 312 315 318 321 322 323 324 325 327 330 332 334 336 337 337 338 339 339 338 338 338 339 339 339 339 339 339 339 340 341 343 344 343 344 344 342 342 340 339 341 341 337 335 337 336 336 338 339 341 343 344 347 349 350 352 356 358 358 356 354 353 351 351 350 349 348 349 350
250 251 253 258 262 266 269 273 281 289 296 300 302 302 303 305 307 310 313 316 317 317 317 318 319 320 322 325 328 330 332 333 334 334 334 333 333 333 334 334 333 333 332 333 333 334 336 338 339 339 340 341 341 341 340 338 339 339 334 331 333 335 334 335 337 340 341 342 345 347 348 350 354 356 356 354 352 350 349 348 347 347 347 347 348
251 250 252 257 264 271 274 277 279 286 293 297 299 300 301 303 306 310 313 314 315 314 314 315 315 317 318 320 322 324 327 328 329 330 330 329 329 328 328 328 328 327 327 328 329 330 331 333 335 336 336 337 338 338 338 337 336 337 332 327 330 333 333 333 335 338 340 340 342 344 345 348 352 354 353 352 350 348 347 346 345 345 345 346 347
247 247 251 257 264 270 275 277 279 282 288 294 297 300 301 304 307 310 312 313 313 313 314 314 314 315 316 317 318 320 321 324 325 326 326 326 326 325 324 324 323 323 323 324 325 326 328 329 330 331 332 333 334 334 335 335 335 335 331 325 326 330 331 332 333 336 337 337 339 341 343 346 350 352 352 349 348 346 345 344 343 343 344 345 345
244 246 251 255 260 265 270 276 281 284 289 292 296 299 302 304 307 308 310 310 311 312 312 312 312 312 313 314 315 316 318 319 321 322 323 323 323 322 322 321 320 320 320 321 322 323 325 325 326 327 327 328 329 330 331 332 332 332 329 321 318 323 328 331 332 334 334 334 335 338 341 344 348 351 350 347 346 344 343 343 342 341 343 344 344
243 246 250 254 259 263 269 277 284 289 293 295 297 300 302 304 306 307 308 308 308 309 310 310 310 310 311 312 313 314 315 316 317 318 319 319 319 319 319 319 318 318 318 318 319 320 321 322 323 324 324 325 325 326 328 328 329 329 326 317 310 313 321 328 331 332 333 332 333 335 339 343 347 349 348 346 344 343 342 341 340 340 341 342 343
244 247 250 255 260 265 270 278 285 289 294 297 299 301 303 304 305 305 305 305 305 305 306 307 307 308 309 309 310 311 312 313 314 315 316 316 317 317 317 317 316 316 316 316 317 318 318 319 319 320 320 321 322 323 325 325 325 326 324 314 306 308 315 323 328 331 332 332 332 333 337 341 345 348 348 345 343 342 340 339 338 338 340 341 342
247 249 253 258 264 269 274 278 282 287 292 295 298 301 303 303 303 302 302 302 302 302 304 305 305 306 306 307 307 308 309 311 311 312 313 314 315 315 315 315 314 314 314 314 314 315 315 315 316 316 316 317 318 319 321 322 321 322 321 313 306 308 312 318 324 329 332 332 332 332 335 340 344 347 347 345 342 341 340 338 337 338 339 340 341
251 253 257 262 267 273 277 280 283 287 291 294 297 298 300 302 302 301 300 300 300 300 301 302 303 303 304 305 306 307 308 309 310 310 311 312 313 312 312 311 311 312 311 311 311 311 311 312 312 312 313 314 315 316 317 318 317 318 318 312 307 308 311 315 320 328 332 333 331 331 333 338 342 345 347 344 341 340 340 338 336 336 337 338 339
255 257 260 265 269 274 278 282 286 288 291 293 294 296 297 299 300 300 300 299 299 299 300 300 301 302 303 304 305 307 308 308 309 309 309 309 310 309 309 309 309 309 309 309 309 309 308 308 308 309 310 311 312 312 314 314 314 315 314 309 306 307 310 313 316 324 331 332 330 330 332 336 340 343 346 344 341 340 339 337 335 335 336 337 338
257 260 263 267 271 274 278 282 285 287 289 291 293 294 296 298 299 299 298 298 298 299 299 300 301 302 303 304 305 306 307 307 307 307 307 307 307 307 306 306 307 307 307 307 307 307 307 307 307 307 307 308 309 309 309 310 310 310 309 306 305 306 309 311 313 319 329 331 330 330 332 335 338 342 344 344 341 339 338 336 334 334 335 336 337
260 262 265 268 271 274 278 280 283 285 288 291 292 294 296 297 298 298 298 298 299 299 300 301 302 302 303 303 304 304 304 305 305 305 305 305 305 305 304 304 304 305 305 305 306 306 307 307 307 306 306 306 306 305 305 306 305 306 305 303 303 305 308 311 312 318 326 329 330 331 333 334 337 340 342 342 340 338 337 335 334 333 334 335 336
261 263 265 267 270 273 276 279 282 286 289 291 293 294 295 296 297 298 299 299 299 300 300 301 301 302 302 302 302 302 302 302 303 303 304 303 303 303 302 303 303 303 304 304 305 306 306 307 307 306 306 306 304 302 302 301 301 301 303 302 303 305 308 310 313 318 324 327 330 332 333 334 336 338 341 342 340 338 336 335 333 332 333 334 335
260 262 264 267 270 273 277 280 283 286 288 290 292 293 294 295 296 297 298 298 298 298 299 299 300 300 300 300 300 300 300 300 301 301 301 301 301 301 302 303 302 302 303 305 306 306 307 308 307 306 306 305 302 299 298 297 297 299 303 304 305 307 309 311 313 318 322 325 329 332 334 334 334 337 340 342 340 338 336 335 334 332 332 333 334
261 263 266 268 271 275 277 280 283 285 287 288 289 290 292 294 295 296 296 296 296 297 297 298 298 298 298 299 299 299 298 298 298 299 299 299 301 302 303 303 302 303 304 306 307 308 309 310 308 306 304 302 298 297 297 297 299 302 306 308 309 310 312 311 313 317 321 324 328 332 334 334 334 336 339 341 341 339 337 336 334 332 331 332 332
262 265 268 271 273 275 277 279 281 283 285 287 288 290 292 293 294 294 294 295 296 296 296 296 296 297 297 297 297 297 297 297 297 298 299 301 303 304 305 304 303 304 306 307 308 309 310 309 307 304 300 297 295 296 298 300 304 307 310 313 314 314 314 313 313 317 319 323 327 331 333 334 333 335 338 340 340 339 337 336 334 331 330 330 331
264 266 268 271 273 275 277 279 281 283 285 287 289 290 291 292 293 293 294 294 294 295 295 295 295 295 296 296 297 297 297 298 299 299 301 303 305 306 305 304 305 307 308 308 308 309 310 309 306 300 294 291 292 296 299 303 307 309 311 314 315 315 314 314 315 317 319 321 325 330 333 333 332 334 337 339 339 338 336 334 333 331 329 330 331
265 267 269 271 274 276 279 281 283 284 286 287 288 289 290 291 292 292 292 293 293 293 294 294 295 295 296 297 298 298 299 300 301 302 304 305 306 306 306 307 309 310 310 310 310 310 310 308 301 292 286 287 291 297 302 305 308 311 312 313 316 315 314 314 315 318 319 320 323 328 332 332 331 333 336 338 339 338 335 333 332 330 329 329 330
267 269 272 274 276 278 280 282 284 285 286 287 288 288 289 290 291 291 291 291 292 293 294 295 296 297 298 299 299 300 301 302 304 305 306 307 309 310 310 311 312 312 311 310 309 310 309 303 290 284 286 290 295 301 307 309 311 313 313 312 314 315 313 314 316 319 321 321 321 326 331 330 329 332 335 337 338 338 335 333 331 329 328 328 329
269 271 274 276 277 279 281 282 284 285 286 286 286 287 288 289 289 290 291 292 292 293 295 297 298 300 300 301 301 302 303 304 305 306 306 308 310 311 312 313 313 312 310 309 309 309 305 293 282 284 290 294 300 305 310 312 313 313 313 311 312 313 312 314 318 319 321 321 320 324 330 329 328 332 335 337 337 337 335 333 330 328 327 327 328
271 273 275 277 278 280 281 282 283 283 284 284 285 286 287 288 290 291 292 293 293 294 296 297 299 300 300 301 301 302 303 304 305 304 305 308 309 311 312 313 313 311 308 308 308 305 298 288 282 287 293 298 303 306 308 311 312 312 312 311 311 313 312 313 317 319 321 322 320 321 328 329 329 332 335 336 336 335 334 332 329 327 326 326 327
273 275 276 277 278 279 280 281 281 282 283 284 285 287 289 291 293 294 295 295 295 296 298 300 299 299 299 300 300 301 302 304 304 304 305 307 309 310 310 311 311 310 308 307 307 302 296 289 285 290 294 298 301 302 303 306 309 309 310 311 311 312 311 311 315 319 322 324 321 321 327 330 330 331 332 334 334 333 332 331 328 325 325 325 326
274 275 275 276 277 277 278 279 280 281 283 285 287 289 291 293 294 295 296 296 297 299 300 300 299 299 299 301 302 303 303 304 305 306 308 309 310 310 310 309 310 310 308 308 306 301 299 296 292 293 295 299 302 303 302 304 306 307 308 309 310 311 310 312 317 320 323 324 321 321 327 330 328 328 330 331 331 330 330 331 327 325 324 324 325
Height
10991 10990 10990 10989 10989 10988 10986 10985 10984 10983 10982 10980 10979 10978 10977 10975 10974 10975 10975 10974 10972 10971 10970 10968 10967 10966 10964 10963 10961 10960 10959 10957 10956 10954 10953 10952 10951 10950 10949 10949 10948 10947 10947 10946 10945 10944 10942 10942 10941 10942 10942 10941 10941 10941 10940 10940 10939 10938 10938 10937 10936 10935 10934 10933 10932 10932 10932 10932 10932 10932 10931 10931 10931 10931 10930 10930 10930 10929 10929 10928 10928 10927 10927 10927 10927
10993 10992 10991 10991 10990 10989 10988 10987 10986 10986 10985 10982 10980 10979 10978 10977 10978 10979 10978 10975 10974 10973 10971 10970 10969 10968 10967 10966 10964 10963 10961 10960 10958 10957 10955 10954 10954 10953 10951 10950 10950 10949 10948 10948 10947 10945 10944 10943 10943 10943 10943 10943 10942 10941 10941 10940 10939 10938 10937 10936 10935 10935 10934 10933 10933 10932 10932 10932 10931 10931 10931 10930 10930 10930 10930 10930 10930 10929 10928 10928 10927 10927 10927 10926 10926
10994 10993 10993 10992 10991 10991 10990 10989 10988 10988 10986 10983 10982 10981 10981 10981 10982 10981 10979 10977 10975 10974 10973 10973 10972 10971 10970 10969 10967 10966 10964 10963 10961 10959 10958 10957 10957 10955 10954 10953 10952 10951 10950 10949 10948 10947 10946 10945 10945 10945 10944 10944 10943 10942 10941 10940 10939 10938 10937 10936 10935 10935 10934 10933 10933 10932 10932 10932 10931 10931 10930 10930 10930 10930 10930 10930 10929 10929 10928 10928 10927 10927 10926 10926 10925
10994 10994 10994 10993 10992 10992 10992 10991 10990 10989 10988 10986 10985 10984 10985 10986 10984 10982 10980 10979 10977 10977 10976 10975 10974 10974 10974 10972 10971 10969 10968 10966 10964 10963 10962 10961 10960 10959 10957 10956 10955 10954 10953 10952 10951 10949 10948 10947 10947 10946 10946 10945 10944 10942 10941 10940 10939 10938 10937 10936 10935 10934 10934 10933 10933 10932 10932 10931 10931 10930 10930 10929 10929 10929 10929 10929 10928 10928 10928 10927 10927 10926 10926 10925 10924
10995 10995 10995 10994 10994 10994 10993 10993 10993 10992 10990 10989 10989 10988 10988 10988 10986 10984 10983 10981 10980 10980 10979 10978 10978 10978 10977 10976 10975 10973 10972 10970 10968 10967 10966 10965 10964 10962 10961 10960 10959 10958 10957 10955 10954 10952 10951 10950 10949 10949 10948 10946 10945 10944 10942 10941 10939 10938 10937 10936 10935 10934 10934 10933 10933 10932 10932 10931 10930 10930 10929 10929 10929 10928 10928 10928 10927 10927 10927 10926 10926 10926 10925 10925 10924
10997 10997 10997 10997 10996 10996 10995 10995 10995 10994 10993 10992 10991 10991 10990 10989 10988 10987 10986 10985 10984 10983 10982 10982 10982 10981 10981 10980 10978 10977 10976 10974 10973 10971 10970 10968 10967 10966 10965 10964 10963 10962 10961 10960 10958 10956 10955 10954 10953 10952 10951 10949 10948 10946 10944 10942 10941 10939 10938 10936 10935 10934 10934 10933 10933 10932 10931 10931 10930 10929 10929 10929 10928 10928 10927 10927 10927 10926 10926 10925 10925 10925 10924 10924 10923
10999 10999 10999 10999 10998 10998 10997 10997 10997 10996 10995 10994 10994 10993 10992 10990 10989 10989 10989 10988 10987 10986 10986 10986 10986 10985 10984 10983 10982 10981 10980 10978 10977 10976 10974 10972 10971 10970 10968 10967 10966 10966 10965 10964 10962 10960 10959 10958 10957 10956 10954 10953 10951 10949 10947 10946 10944 10942 10940 10938 10937 10935 10934 10933 10933 10932 10931 10931 10930 10929 10929 10929 10928 10928 10927 10927 10926 10926 10925 10924 10924 10923 10923 10922 10922
11001 11001 11001 11000 11000 11000 10999 10998 10998 10998 10997 10997 10996 10995 10994 10993 10992 10992 10992 10991 10990 10990 10990 10990 10990 10989 10988 10987 10986 10985 10983 10982 10980 10979 10977 10976 10975 10973 10972 10971 10969 10968 10967 10966 10965 10964 10962 10961 10960 10958 10957 10956 10954 10952 10951 10949 10947 10945 10944 10942 10940 10938 10936 10935 10934 10932 10931 10931 10930 10929 10929 10928 10928 10927 10927 10926 10925 10925 10924 10923 10923 10922 10921 10920 10920
11002 11002 11002 11002 11001 11001 11000 10999 11000 11000 11000 11000 10999 10997 10997 10996 10995 10995 10995 10994 10993 10993 10993 10993 10993 10992 10992 10991 10989 10988 10986 10985 10983 10982 10980 10979 10978 10976 10975 10974 10972 10971 10970 10968 10967 10966 10965 10964 10963 10961 10960 10958 10957 10955 10954 10952 10950 10948 10946 10945 10943 10941 10939 10938 10936 10935 10933 10932 10931 10930 10929 10928 10927 10927 10926 10925 10925 10924 10923 10922 10921 10920 10919 10919 10918
11004 11004 11003 11003 11003 11002 11002 11001 11001 11002 11002 11002 11001 11000 10999 10998 10998 10997 10997 10997 10996 10996 10996 10996 10996 10995 10995 10994 10992 10991 10989 10987 10986 10984 10983 10981 10980 10979 10977 10976 10975 10974 10972 10971 10970 10968 10967 10966 10965 10964 10962 10961 10959 10958 10956 10954 10953 10951 10949 10947 10945 10943 10941 10940 10938 10937 10936 10934 10933 10932 10930 10929 10928 10927 10925 10924 10923 10923 10922 10921 10920 10919 10918 10917 10916
11006 11006 11005 11005 11004 11004 11004 11003 11003 11004 11004 11003 11003 11002 11002 11001 11000 11000 10999 10999 10999 10999 10999 10999 10999 10998 10997 10996 10995 10994 10992 10990 10988 10986 10985 10983 10982 10981 10979 10978 10977 10976 10975 10973 10972 10971 10969 10968 10967 10965 10964 10963 10961 10960 10958 10956 10955 10953 10951 10949 10947 10945 10943 10942 10940 10939 10937 10936 10935 10933 10932 10930 10929 10928 10926 10925 10924 10922 10921 10919 10918 10917 10916 10915 10914
11008 11008 11007 11007 11006 11006 11005 11005 11005 11005 11005 11005 11005 11005 11004 11003 11003 11003 11002 11001 11001 11001 11001 11001 11001 11000 11000 10999 10998 10996 10994 10993 10991 10989 10987 10985 10984 10982 10981 10980 10979 10978 10976 10975 10974 10972 10971 10970 10969 10967 10966 10964 10963 10961 10959 10958 10956 10955 10953 10951 10949 10947 10945 10943 10942 10940 10939 10937 10936 10934 10932 10931 10930 10928 10927 10926 10924 10923 10921 10920 10918 10916 10914 10913 10912
11009 11009 11009 11008 11008 11008 11007 11007 11007 11008 11007 11007 11006 11007 11006 11005 11005 11005 11004 11003 11003 11003 11003 11003 11002 11002 11001 11000 10999 10998 10996 10995 10993 10991 10989 10987 10985 10984 10982 10981 10980 10979 10978 10976 10975 10974 10973 10971 10970 10969 10967 10966 10964 10963 10961 10959 10958 10956 10954 10952 10950 10948 10946 10944 10943 10941 10939 10938 10936 10934 10932 10931 10929 10928 10927 10926 10924 10923 10921 10919 10918 10916 10914 10912 10910
11011 11011 11010 11010 11010 11010 11010 11009 11009 11009 11009 11008 11008 11008 11008 11007 11007 11007 11006 11006 11005 11005 11005 11004 11004 11003 11002 11000 10999 10998 10997 10996 10995 10993 10991 10989 10987 10985 10984 10982 10981 10980 10979 10977 10976 10975 10974 10973 10971 10970 10969 10967 10965 10964 10962 10960 10959 10957 10956 10954 10952 10950 10948 10945 10943 10941 10940 10938 10936 10934 10933 10931 10929 10928 10926 10925 10923 10922 10920 10918 10916 10914 10912 10911 10909
11012 11012 11012 11012 11012 11012 11012 11012 11011 11010 11010 11010 11009 11009 11009 11008 11008 11009 11008 11008 11007 11007 11006 11005 11004 11003 11002 11001 10999 10998 10997 10996 10994 10993 10992 10990 10989 10987 10985 10983 10982 10981 10980 10978 10977 10976 10975 10974 10973 10971 10970 10968 10967 10965 10963 10962 10960 10959 10957 10955 10953 10951 10949 10946 10944 10941 10939 10938 10936 10934 10932 10930 10929 10927 10925 10924 10922 10920 10919 10917 10915 10913 10911 10909 10907
11013 11013 11013 11013 11013 11013 11013 11013 11012 11011 11011 11011 11010 11010 11010 11009 11009 11010 11009 11009 11008 11008 11007 11006 11005 11004 11003 11001 11000 10998 10997 10995 10994 10992 10992 10990 10989 10987 10986 10985 10983 10982 10981 10979 10978 10977 10976 10975 10974 10972 10971 10969 10967 10966 10964 10962 10961 10959 10957 10955 10953 10952 10949 10947 10944 10942 10939 10937 10935 10933 10931 10929 10928 10926 10924 10922 10920 10919 10916 10914 10912 10909 10907 10906 10904
11014 11014 11014 11014 11014 11014 11014 11013 11013 11013 11012 11012 11011 11011 11011 11011 11010 11010 11010 11009 11009 11009 11008 11007 11006 11005 11003 11002 11000 10999 10997 10995 10993 10992 10991 10990 10989 10988 10986 10985 10984 10983 10981 10980 10979 10978 10977 10975 10974 10973 10971 10970 10968 10967 10965 10963 10961 10959 10958 10956 10954 10952 10949 10947 10945 10942 10939 10937 10935 10933 10931 10928 10927 10924 10922 10920 10918 10916 10913 10910 10908 10905 10903 10900 10898
11015 11015 11015 11014 11015 11014 11014 11014 11014 11014 11013 11013 11012 11012 11012 11012 11012 11011 11010 11010 11009 11009 11008 11008 11007 11005 11004 11003 11001 10999 10997 10995 10993 10991 10990 10989 10988 10988 10986 10985 10984 10983 10982 10980 10979 10978 10977 10976 10975 10973 10972 10970 10969 10967 10965 10963 10962 10960 10958 10956 10954 10952 10950 10947 10945 10942 10939 10937 10934 10932 10930 10927 10925 10923 10921 10918 10916 10913 10911 10908 10905 10903 10900 10898 10895
11015 11015 11015 11015 11015 11015 11015 11015 11015 11015 11015 11014 11014 11014 11013 11013 11012 11011 11011 11010 11010 11009 11009 11008 11007 11006 11004 11003 11001 10999 10997 10996 10994 10992 10991 10989 10988 10987 10987 10985 10984 10983 10982 10981 10979 10978 10977 10976 10975 10974 10972 10971 10969 10967 10966 10964 10962 10960 10958 10956 10954 10952 10950 10947 10944 10942 10939 10936 10933 10931 10929 10926 10924 10922 10919 10917 10914 10912 10909 10906 10904 10901 10899 10896 10893
11015 11015 11016 11016 11016 11016 11016 11016 11016 11016 11015 11015 11015 11015 11014 11014 11013 11012 11011 11010 11010 11009 11009 11008 11008 11007 11005 11004 11002 10999 10998 10996 10994 10993 10991 10990 10989 10988 10987 10986 10985 10984 10983 10981 10980 10979 10977 10976 10975 10974 10973 10971 10970 10968 10966 10964 10963 10961 10958 10956 10954 10951 10949 10947 10944 10941 10938 10936 10933 10930 10928 10925 10923 10921 10918 10915 10913 10910 10907 10905 10902 10899 10896 10893 10889
11015 11015 11016 11016 11016 11016 11016 11016 11016 11016 11016 11016 11016 11015 11015 11014 11013 11012 11011 11010 11010 11009 11009 11008 11007 11006 11005 11004 11002 11000 10998 10996 10995 10993 10992 10991 10989 10988 10987 10986 10985 10984 10983 10982 10980 10979 10978 10976 10975 10973 10972 10970 10969 10967 10966 10964 10962 10960 10958 10955 10953 10951 10949 10946 10943 10941 10938 10935 10932 10930 10927 10924 10922 10919 10917 10914 10911 10908 10905 10902 10899 10896 10893 10889 10885
11015 11015 11015 11016 11016 11016 11016 11016 11016 11016 11016 11016 11016 11015 11015 11014 11014 11013 11012 11011 11010 11009 11009 11008 11007 11006 11005 11004 11002 11001 10999 10997 10995 10994 10992 10991 10990 10989 10987 10986 10985 10984 10983 10982 10980 10979 10978 10976 10974 10972 10971 10969 10968 10966 10964 10963 10961 10959 10957 10955 10953 10950 10948 10945 10943 10940 10937 10934 10931 10929 10926 10923 10921 10918 10915 10912 10909 10906 10903 10900 10897 10893 10889 10885 10881
11015 11015 11015 11015 11016 11016 11016 11016 11016 11016 11016 11015 11015 11015 11015 11014 11014 11013 11012 11011 11010 11009 11009 11008 11006 11005 11004 11003 11002 11001 10999 10998 10996 10994 10993 10991 10990 10989 10988 10987 10985 10984 10983 10981 10980 10979 10977 10976 10974 10972 10970 10968 10967 10965 10963 10962 10960 10958 10956 10954 10951 10949 10947 10944 10941 10939 10936 10933 10930 10927 10924 10921 10919 10916 10913 10910 10907 10903 10900 10898 10894 10891 10886 10882 10877
11014 11015 11015 11015 11015 11015 11015 11015 11015 11015 11015 11015 11015 11015 11014 11014 11014 11013 11012 11011 11010 11009 11008 11007 11006 11005 11004 11003 11002 11001 11000 10998 10997 10995 10993 10992 10991 10990 10988 10987 10986 10984 10983 10982 10980 10979 10977 10976 10974 10972 10970 10968 10967 10965 10963 10961 10959 10958 10955 10953 10950 10947 10945 10942 10940 10938 10935 10932 10929 10926 10923 10920 10917 10914 10911 10908 10904 10901 10897 10894 10890 10886 10882 10877 10872
11014 11014 11014 11015 11015 11015 11015 11015 11015 11015 11015 11015 11014 11014 11013 11013 11013 11012 11012 11011 11010 11009 11008 11007 11006 11004 11003 11002 11001 11000 10999 10998 10997 10995 10994 10992 10991 10989 10988 10987 10986 10984 10983 10981 10980 10979 10977 10976 10974 10972 10970 10968 10966 10964 10962 10960 10958 10956 10954 10951 10949 10946 10944 10941 10939 10936 10933 10930 10928 10925 10922 10919 10915 10912 10909 10905 10901 10897 10893 10890 10886 10882 10878 10874 10869
11013 11013 11014 11014 11014 11015 11015 11015 11014 11014 11014 11014 11014 11013 11013 11012 11012 11012 11011 11010 11009 11008 11007 11006 11005 11004 11003 11001 11000 10999 10998 10997 10996 10995 10993 10992 10990 10989 10988 10987 10985 10984 10982 10981 10979 10978 10976 10975 10973 10971 10969 10967 10965 10963 10961 10959 10957 10954 10952 10949 10947 10945 10942 10940 10937 10934 10931 10928 10926 10922 10919 10916 10912 10909 10905 10901 10897 10893 10889 10886 10882 10878 10874 10871 10865
11012 11012 11013 11013 11014 11014 11014 11014 11014 11014 11013 11013 11013 11012 11012 11011 11011 11010 11010 11009 11008 11008 11007 11006 11005 11004 11003 11001 11000 10998 10997 10996 10995 10994 10993 10991 10990 10988 10987 10986 10985 10983 10982 10979 10978 10977 10975 10973 10971 10970 10968 10965 10963 10961 10959 10957 10955 10952 10950 10947 10944 10942 10940 10937 10935 10932 10929 10926 10923 10920 10916 10913 10909 10905 10901 10897 10893 10889 10886 10882 10878 10875 10871 10867 10862
11011 11011 11012 11012 11012 11013 11013 11013 11013 11013 11013 11012 11012 11011 11010 11010 11009 11009 11008 11008 11007 11007 11006 11005 11004 11003 11002 11001 10999 10998 10996 10995 10994 10993 10992 10990 10989 10987 10986 10984 10983 10982 10980 10978 10976 10975 10973 10972 10969 10967 10966 10964 10962 10960 10958 10955 10953 10951 10948 10945 10942 10940 10937 10935 10932 10929 10926 10923 10920 10917 10914 10910 10906 10902 10898 10894 10890 10886 10882 10878 10875 10872 10868 10864 10858
11009 11010 11010 11011 11011 11011 11011 11012 11012 11011 11011 11011 11010 11010 11009 11008 11008 11007 11006 11006 11006 11005 11004 11003 11002 11001 11000 10999 10998 10997 10995 10994 10993 10992 10990 10989 10987 10986 10984 10983 10981 10980 10978 10977 10975 10973 10971 10970 10968 10966 10964 10963 10961 10958 10956 10953 10951 10949 10946 10943 10940 10937 10935 10932 10929 10926 10924 10921 10918 10915 10911 10907 10903 10899 10895 10891 10887 10882 10878 10875 10871 10868 10864 10859 10854
11008 11008 11009 11009 11009 11009 11010 11010 11010 11010 11009 11009 11009 11008 11008 11007 11006 11005 11005 11004 11004 11003 11002 11002 11001 11000 10998 10997 10996 10995 10994 10993 10991 10990 10989 10988 10986 10985 10983 10981 10979 10978 10976 10975 10973 10971 10969 10968 10966 10964 10962 10960 10958 10956 10954 10951 10949 10947 10944 10941 10938 10935 10932 10930 10927 10924 10921 10918 10915 10912 10908 10905 10900 10896 10891 10887 10883 10879 10875 10871 10868 10864 10860 10854 10848
11006 11006 11007 11007 11007 11007 11007 11008 11008 11008 11007 11007 11007 11006 11006 11006 11005 11004 11003 11002 11001 11000 11000 10999 10998 10997 10996 10995 10994 10993 10992 10991 10990 10988 10987 10986 10985 10983 10982 10980 10978 10976 10974 10973 10971 10970 10968 10966 10964 10962 10959 10957 10955 10953 10951 10949 10946 10944 10941 10938 10935 10933 10930 10927 10925 10921 10918 10915 10912 10909 10906 10902 10897 10892 10888 10883 10879 10875 10871 10867 10863 10859 10854 10849 10843
11003 11004 11004 11005 11005 11005 11005 11005 11005 11006 11006 11005 11005 11004 11004 11004 11003 11003 11002 11000 10999 10998 10997 10997 10996 10995 10994 10992 10991 10990 10989 10988 10987 10986 10985 10983 10982 10981 10980 10978 10976 10974 10971 10970 10968 10966 10965 10963 10962 10960 10958 10955 10952 10950 10948 10946 10943 10940 10937 10935 10932 10930 10927 10925 10922 10919 10916 10912 10909 10907 10903 10898 10894 10889 10884 10880 10875 10871 10867 10862 10858 10854 10849 10843 10837
11001 11001 11002 11002 11003 11003 11003 11003 11003 11003 11003 11003 11003 11003 11002 11002 11002 11001 11000 10999 10997 10996 10995 10994 10993 10992 10991 10990 10988 10987 10985 10985 10984 10983 10982 10980 10979 10978 10976 10975 10973 10971 10969 10966 10964 10962 10960 10959 10957 10956 10954 10952 10950 10947 10944 10942 10940 10937 10934 10932 10930 10927 10925 10922 10919 10917 10914 10910 10906 10903 10900 10895 10890 10885 10880 10876 10871 10867 10862 10858 10854 10849 10844 10838 10832
10998 10999 11000 11000 11001 11001 11001 11001 11001 11001 11001 11001 11001 11001 11000 11000 10999 10999 10998 10997 10995 10993 10992 10991 10989 10989 10988 10987 10986 10984 10982 10981 10980 10979 10978 10977 10976 10974 10973 10971 10969 10968 10965 10963 10961 10958 10956 10954 10952 10950 10948 10947 10946 10944 10941 10938 10936 10934 10931 10929 10927 10925 10922 10919 10916 10913 10911 10907 10903 10900 10896 10891 10886 10881 10877 10872 10867 10863 10858 10854 10849 10845 10840 10834 10827
10996 10997 10998 10998 10999 10999 10999 10999 10999 10999 10999 10999 10998 10998 10998 10998 10997 10996 10995 10994 10993 10991 10990 10988 10987 10985 10984 10983 10983 10981 10980 10978 10976 10975 10974 10973 10972 10970 10969 10967 10965 10964 10962 10959 10957 10954 10952 10949 10947 10945 10943 10941 10940 10938 10936 10934 10932 10930 10928 10926 10924 10922 10919 10916 10912 10910 10907 10904 10900 10897 10893 10888 10883 10877 10873 10868 10863 10858 10853 10850 10846 10840 10835 10829 10822
10994 10995 10995 10996 10997 10997 10997 10997 10997 10996 10996 10996 10996 10995 10995 10995 10994 10993 10992 10991 10990 10989 10987 10986 10984 10982 10980 10979 10978 10978 10976 10975 10973 10971 10970 10969 10968 10966 10964 10963 10961 10959 10957 10955 10953 10951 10948 10946 10943 10940 10938 10936 10935 10933 10932 10930 10927 10925 10923 10921 10920 10918 10916 10913 10910 10907 10904 10900 10897 10893 10889 10884 10879 10873 10869 10864 10859 10855 10851 10847 10842 10835 10829 10824 10817
10992 10992 10993 10994 10994 10994 10994 10994 10994 10994 10993 10993 10993 10992 10991 10991 10991 10990 10989 10988 10986 10985 10984 10983 10981 10979 10977 10975 10974 10973 10973 10971 10970 10968 10966 10965 10963 10961 10960 10958 10956 10954 10953 10951 10949 10947 10945 10942 10939 10936 10934 10931 10929 10927 10927 10925 10923 10921 10919 10917 10915 10914 10912 10909 10906 10903 10900 10897 10894 10889 10885 10880 10875 10870 10865 10860 10855 10851 10847 10843 10837 10830 10825 10819 10813
10989 10990 10991 10991 10991 10992 10992 10991 10991 10991 10990 10990 10989 10989 10988 10987 10987 10986 10985 10984 10983 10982 10981 10980 10978 10976 10974 10972 10970 10969 10968 10967 10966 10964 10963 10961 10959 10956 10954 10952 10951 10949 10947 10945 10944 10942 10941 10939 10936 10933 10930 10927 10924 10922 10921 10920 10918 10916 10914 10912 10911 10909 10907 10905 10902 10900 10897 10894 10890 10886 10881 10877 10872 10866 10860 10855 10850 10845 10841 10837 10832 10826 10820 10814 10808
10986 10987 10988 10988 10989 10989 10989 10988 10987 10987 10987 10986 10986 10985 10985 10984 10983 10983 10982 10980 10979 10978 10977 10976 10975 10973 10971 10969 10967 10965 10963 10962 10961 10959 10958 10957 10955 10952 10949 10946 10944 10943 10941 10939 10938 10936 10935 10933 10931 10928 10926 10923 10920 10918 10916 10914 10913 10911 10909 10908 10906 10905 10902 10900 10897 10896 10894 10892 10888 10884 10878 10873 10868 10862 10856 10850 10845 10840 10836 10832 10827 10821 10815 10809 10802
10983 10984 10985 10985 10985 10985 10985 10984 10983 10983 10983 10983 10982 10982 10981 10980 10979 10978 10978 10976 10975 10974 10973 10971 10970 10969 10967 10965 10963 10961 10959 10957 10955 10954 10952 10951 10949 10947 10944 10941 10938 10936 10934 10933 10931 10930 10928 10926 10924 10922 10920 10918 10915 10913 10911 10909 10907 10906 10904 10903 10902 10900 10898 10895 10892 10890 10890 10888 10885 10881 10876 10871 10866 10859 10853 10847 10842 10837 10833 10828 10823 10817 10810 10804 10798
10980 10980 10981 10981 10981 10981 10981 10980 10980 10979 10979 10979 10978 10977 10977 10976 10975 10974 10973 10972 10971 10969 10968 10967 10965 10964 10963 10961 10959 10956 10954 10951 10950 10948 10946 10944 10943 10941 10939 10936 10933 10930 10928 10926 10925 10923 10922 10920 10916 10914 10913 10912 10910 10907 10906 10904 10902 10901 10899 10899 10897 10896 10894 10892 10888 10885 10884 10883 10881 10877 10873 10868 10864 10859 10853 10846 10840 10835 10830 10826 10820 10814 10808 10801 10795
10976 10977 10977 10977 10977 10977 10977 10976 10976 10975 10975 10975 10974 10973 10973 10972 10972 10970 10968 10967 10966 10965 10963 10962 10961 10959 10957 10956 10954 10951 10948 10946 10944 10943 10941 10939 10936 10935 10933 10930 10927 10924 10922 10920 10918 10916 10915 10913 10911 10908 10906 10905 10904 10902 10901 10900 10898 10897 10895 10894 10893 10892 10890 10888 10885 10882 10879 10878 10875 10872 10867 10863 10859 10854 10849 10844 10838 10833 10829 10824 10819 10812 10806 10800 10794
10973 10974 10974 10974 10974 10974 10973 10972 10972 10971 10971 10970 10970 10969 10969 10968 10968 10966 10964 10962 10961 10961 10959 10957 10955 10954 10952 10950 10948 10945 10943 10940 10937 10936 10935 10933 10931 10929 10927 10924 10921 10918 10916 10915 10913 10910 10908 10907 10905 10903 10901 10899 10898 10897 10896 10895 10894 10893 10892 10891 10889 10888 10886 10884 10882 10878 10874 10872 10870 10866 10863 10859 10853 10848 10844 10838 10833 10828 10824 10820 10815 10809 10803 10798 10792
10970 10970 10970 10970 10969 10969 10968 10968 10967 10966 10966 10966 10965 10965 10965 10964 10964 10962 10960 10957 10956 10955 10954 10952 10950 10948 10946 10944 10942 10939 10937 10933 10930 10928 10927 10927 10926 10924 10921 10917 10914 10911 10910 10909 10907 10905 10903 10901 10899 10898 10896 10895 10894 10893 10893 10892 10891 10889 10888 10887 10886 10884 10883 10881 10879 10874 10869 10865 10864 10862 10858 10854 10849 10844 10839 10833 10827 10822 10818 10815 10811 10806 10801 10795 10790
10965 10965 10966 10966 10965 10965 10964 10963 10963 10962 10961 10961 10960 10960 10960 10960 10960 10958 10955 10952 10950 10949 10948 10946 10944 10942 10940 10939 10936 10933 10931 10928 10924 10922 10922 10921 10921 10919 10915 10911 10908 10905 10903 10902 10901 10900 10898 10896 10894 10893 10892 10891 10890 10890 10889 10889 10888 10886 10884 10883 10882 10880 10878 10876 10874 10872 10865 10859 10858 10857 10854 10850 10846 10840 10835 10829 10823 10818 10814 10810 10807 10803 10797 10791 10785
10960 10960 10961 10961 10961 10961 10960 10958 10957 10957 10956 10956 10955 10955 10955 10954 10954 10953 10951 10948 10944 10942 10941 10940 10938 10936 10934 10932 10930 10928 10926 10923 10919 10917 10916 10915 10915 10914 10911 10907 10904 10900 10897 10895 10895 10894 10893 10891 10889 10888 10887 10887 10886 10886 10885 10884 10884 10883 10880 10878 10877 10875 10873 10871 10869 10867 10863 10856 10852 10851 10849 10845 10841 10837 10832 10826 10821 10816 10811 10806 10802 10798 10792 10786 10780
10956 10956 10957 10957 10957 10956 10955 10954 10952 10951 10951 10950 10949 10948 10949 10949 10948 10947 10946 10943 10940 10937 10935 10933 10932 10930 10928 10926 10924 10922 10920 10918 10915 10913 10911 10910 10908 10908 10906 10904 10901 10897 10892 10889 10889 10889 10889 10887 10886 10884 10883 10882 10882 10881 10881 10879 10878 10878 10876 10874 10872 10870 10869 10866 10863 10861 10858 10853 10847 10846 10844 10841 10837 10833 10828 10822 10817 10812 10808 10803 10797 10792 10788 10783 10776
10952 10952 10953 10952 10952 10951 10951 10949 10947 10946 10945 10944 10942 10942 10942 10942 10943 10942 10940 10938 10935 10932 10930 10928 10926 10924 10922 10920 10918 10916 10915 10914 10911 10908 10907 10906 10904 10902 10901 10899 10897 10894 10889 10885 10884 10885 10884 10883 10882 10881 10879 10878 10877 10876 10876 10874 10872 10871 10871 10869 10868 10866 10864 10862 10860 10857 10853 10848 10843 10840 10839 10837 10832 10828 10823 10817 10812 10808 10804 10799 10793 10788 10783 10778 10773
10947 10948 10948 10947 10946 10946 10945 10944 10942 10940 10939 10937 10936 10935 10935 10936 10936 10936 10934 10933 10930 10928 10927 10925 10923 10920 10917 10915 10913 10911 10909 10909 10907 10904 10902 10902 10900 10897 10896 10895 10893 10889 10886 10883 10880 10880 10880 10879 10878 10878 10876 10874 10873 10871 10869 10868 10867 10866 10865 10864 10863 10861 10859 10857 10855 10853 10849 10845 10839 10835 10834 10831 10825 10820 10816 10812 10808 10804 10800 10796 10791 10784 10779 10774 10769
10942 10943 10942 10942 10941 10940 10939 10938 10936 10934 10933 10931 10930 10929 10929 10929 10929 10928 10928 10927 10925 10923 10922 10921 10919 10916 10913 10910 10908 10906 10905 10904 10903 10900 10898 10898 10897 10894 10891 10890 10888 10885 10882 10880 10877 10875 10875 10876 10875 10874 10873 10871 10869 10867 10864 10862 10861 10860 10859 10858 10857 10855 10853 10851 10850 10848 10845 10842 10836 10830 10827 10823 10817 10813 10810 10807 10804 10801 10797 10793 10788 10782 10777 10771 10766
10937 10937 10936 10935 10935 10935 10934 10932 10931 10929 10928 10927 10926 10925 10924 10924 10924 10923 10922 10921 10920 10919 10918 10916 10914 10912 10910 10907 10904 10902 10901 10901 10898 10895 10894 10894 10892 10890 10887 10885 10884 10882 10878 10877 10875 10871 10871 10872 10872 10870 10869 10867 10865 10863 10860 10858 10856 10854 10853 10852 10850 10849 10847 10845 10844 10841 10839 10836 10830 10824 10821 10818 10813 10809 10806 10803 10800 10797 10794 10790 10786 10780 10775 10769 10763